Preview of NWS' New Version of Forecast
This preview is not operational and should not be used for support decisions.

Regional Weather Roundup (RWR)

Issued by National Weather Service (NWS)

                            
000
ASCA42 TJSJ 241110
RWRPR 
PUERTO RICO/U.S. VIRGIN ISLANDS HOURLY WEATHER ROUNDUP
NATIONAL WEATHER SERVICE SAN JUAN PR
700 AM AST SUN MAR 24 2019

PRZ001>002-007>008-010-241200-
PUERTO RICO
  
CITY           SKY/WX    TMP DP  RH WIND       PRES   REMARKS
SAN JUAN LMM   PTCLDY    73  72  94 CALM      30.08R                  
AGUADILLA      CLEAR     70  64  83 E6        30.09                   
CEIBA          PTCLDY    79  70  73 E6        30.09R                  
$$

VIZ001>002-241200-
U.S. VIRGIN ISLANDS
  
CITY           SKY/WX    TMP DP  RH WIND       PRES   REMARKS
CHARLOTTE AMA  CLEAR     77  70  78 E10       30.07R                  
CHRISTIANSTED  PTCLDY    75  68  78 NE7       30.08R                  
$$

HOURLY WEATHER ROUNDUP FOR THE NEWS MEDIA
  
CITY           SKY/WX    TMP DP  RH WIND       PRES   REMARKS
ORLANDO        FAIR      59  54  83 NE5       30.24R                  
NEW YORK       FAIR      37  13  37 W10       30.20S WCI  30          
NEWARK         FAIR      32  14  47 SW5       30.22R WCI  27          
CHICAGO        CLOUDY    45  27  49 CALM      30.10F                  
HARTFORD       FAIR      26  19  74 S3        30.08R                  
BOSTON         FAIR      35  15  44 SW10      30.05R WCI  27          
DALLAS         PTCLDY    63  59  87 S10       30.01S                  
PHILADELPHIA   FAIR      37  24  59 SW7       30.26R WCI  32          
LOS ANGELES    CLEAR     56  52  86 CALM      30.13F                  
WASHINGTON DC  FAIR      31  21  66 CALM      30.29R